Faribault, MN

8:56 PM CST on February 13, 2016 (GMT -0600)
Faribault Municipal

Weather History for KFBL - January, 2014

Change the Weather History Date:

Sunday, January 26, 2014

  Actual Average Record
Temperature  
Mean Temperature 8 °F -  
Max Temperature 21 °F 19 °F 69 °F (1999)
Min Temperature -5 °F 0 °F -25 °F (1988)
Degree Days  
Heating Degree Days 56    
Moisture  
Dew Point 2 °F    
Average Humidity 63    
Maximum Humidity 79    
Minimum Humidity 45    
Precipitation  
Precipitation 0.00 in - - ()
Sea Level Pressure  
Sea Level Pressure 29.58 in    
Wind  
Wind Speed 13 mph (West)    
Max Wind Speed 32 mph    
Max Gust Speed 48 mph    
Visibility 6 miles    
Events Snow    
Averages and records for this station are not official NWS values.
T = Trace of Precipitation, MM = Missing Value Source: NWS Daily Summary

Daily Weather History Graph

Daily Weather History Graph

Search for Another Location

Airport or City:

Trip Planner

Search our weather history database for the weather conditions in past years. The results will help you decide how hot, cold, wet, or windy it might be!

Date:

Astronomy

Jan. 26, 2014 Rise Set
Actual Time 7:37 AM CST 5:14 PM CST
Civil Twilight 7:06 AM CST 5:45 PM CST
Nautical Twilight 6:31 AM CST 6:21 PM CST
Astronomical Twilight 5:56 AM CST 6:55 PM CST
Moon 3:16 AM CST (1/26) 1:03 PM CST (1/26)
Length of Visible Light 10h 39m
Length of Day
9h 37m
Waning Crescent, 23% of the Moon is Illuminated
Jan 26
Waning Crescent
Jan 30
New
Feb 6
First Quarter
Feb 14
Full
Feb 22
Last Quarter

Hourly Weather History & Observations

Time (CST) Temp. Windchill Dew Point Humidity Pressure Visibility Wind Dir Wind Speed Gust Speed Precip Events Conditions
12:14 AM 12.2 °F 0.7 °F 6.8 °F 79% 29.48 in 2.0 mi ESE 8.1 mph - N/A Snow Light Snow
12:34 AM 14.0 °F 3.9 °F 6.8 °F 73% 29.46 in 7.0 mi ESE 6.9 mph - N/A   Overcast
12:54 AM 14.0 °F 2.9 °F 6.8 °F 73% 29.44 in 10.0 mi East 8.1 mph - N/A   Overcast
1:14 AM 15.8 °F 3.4 °F 6.8 °F 68% 29.42 in 5.0 mi ESE 10.4 mph - N/A Snow Light Snow
1:34 AM 15.8 °F 2.1 °F 8.6 °F 73% 29.40 in 3.0 mi SE 12.7 mph - N/A   Haze
1:54 AM 15.8 °F 4.2 °F 8.6 °F 73% 29.39 in 3.0 mi SE 9.2 mph - N/A Snow Light Snow
2:14 AM 15.8 °F 4.2 °F 8.6 °F 73% 29.37 in 2.5 mi SE 9.2 mph - N/A Snow Light Snow
2:34 AM 15.8 °F 3.4 °F 8.6 °F 73% 29.38 in 4.0 mi SSE 10.4 mph - N/A Snow Light Snow
2:54 AM 15.8 °F 5.1 °F 8.6 °F 73% 29.37 in 5.0 mi ESE 8.1 mph - N/A Snow Light Snow
3:14 AM 15.8 °F 10.2 °F 8.6 °F 73% 29.38 in 10.0 mi WSW 3.5 mph - N/A Snow Light Snow
3:34 AM 17.6 °F 8.2 °F 8.6 °F 68% 29.37 in 5.0 mi SSE 6.9 mph - N/A Snow Light Snow
3:54 AM 17.6 °F 8.2 °F 8.6 °F 68% 29.36 in 7.0 mi SE 6.9 mph - N/A Snow Light Snow
4:14 AM 17.6 °F 12.3 °F 8.6 °F 68% 29.36 in 10.0 mi SSE 3.5 mph - N/A   Overcast
4:34 AM 17.6 °F 10.7 °F 8.6 °F 68% 29.35 in 10.0 mi SSE 4.6 mph - N/A   Overcast
4:54 AM 17.6 °F - 8.6 °F 68% 29.37 in 10.0 mi Calm Calm - N/A   Overcast
5:14 AM 17.6 °F - 8.6 °F 68% 29.35 in 10.0 mi Calm Calm - N/A   Overcast
5:34 AM 17.6 °F - 8.6 °F 68% 29.34 in 10.0 mi Calm Calm - N/A   Overcast
5:54 AM 17.6 °F - 8.6 °F 68% 29.36 in 10.0 mi Calm Calm - N/A   Overcast
6:14 AM 17.6 °F 12.3 °F 10.4 °F 73% 29.36 in 10.0 mi West 3.5 mph - N/A   Overcast
6:34 AM 17.6 °F 8.2 °F 10.4 °F 73% 29.39 in 10.0 mi West 6.9 mph - N/A   Overcast
6:54 AM 17.6 °F 4.3 °F 10.4 °F 73% 29.40 in 10.0 mi West 12.7 mph - N/A   Overcast
7:14 AM 17.6 °F 5.0 °F 10.4 °F 73% 29.41 in 10.0 mi West 11.5 mph - N/A   Overcast
7:34 AM 17.6 °F 4.3 °F 10.4 °F 73% 29.41 in 10.0 mi West 12.7 mph 19.6 mph N/A   Overcast
7:54 AM 17.6 °F 1.7 °F 10.4 °F 73% 29.42 in 5.0 mi West 18.4 mph 24.2 mph N/A   Haze
8:14 AM 17.6 °F 0.5 °F 10.4 °F 73% 29.43 in 2.0 mi West 21.9 mph 28.8 mph N/A Snow Light Snow
8:34 AM 17.6 °F 3.7 °F 8.6 °F 68% 29.41 in 4.0 mi West 13.8 mph 19.6 mph N/A Snow Light Snow
8:54 AM 17.6 °F 4.3 °F 8.6 °F 68% 29.40 in 10.0 mi WNW 12.7 mph - N/A   Overcast
9:14 AM 17.6 °F 3.7 °F 8.6 °F 68% 29.41 in 10.0 mi West 13.8 mph - N/A   Mostly Cloudy
9:34 AM 19.4 °F 7.2 °F 10.4 °F 68% 29.41 in 10.0 mi West 11.5 mph 17.3 mph N/A   Scattered Clouds
9:54 AM 19.4 °F 5.5 °F 10.4 °F 68% 29.42 in 10.0 mi West 15.0 mph 20.7 mph N/A   Mostly Cloudy
10:14 AM 21.2 °F 7.8 °F 10.4 °F 63% 29.44 in 10.0 mi West 15.0 mph 23.0 mph N/A   Overcast
10:34 AM 21.2 °F 6.0 °F 10.4 °F 63% 29.44 in 7.0 mi West 19.6 mph 26.5 mph N/A   Overcast
10:54 AM 21.2 °F 6.4 °F 10.4 °F 63% 29.45 in 7.0 mi West 18.4 mph 23.0 mph N/A Snow Light Snow
11:14 AM 21.2 °F 6.0 °F 10.4 °F 63% 29.46 in 10.0 mi West 19.6 mph 25.3 mph N/A   Overcast
11:34 AM 21.2 °F 7.8 °F 10.4 °F 63% 29.45 in 4.0 mi West 15.0 mph 20.7 mph N/A   Haze
11:54 AM 21.2 °F 7.8 °F 10.4 °F 63% 29.45 in 7.0 mi West 15.0 mph - N/A   Scattered Clouds
12:14 PM 21.2 °F 5.2 °F 8.6 °F 58% 29.46 in 4.0 mi West 21.9 mph 27.6 mph N/A   Haze
12:34 PM 21.2 °F 7.3 °F 10.4 °F 63% 29.45 in 2.5 mi West 16.1 mph 26.5 mph N/A Snow Light Snow
12:54 PM 21.2 °F 6.0 °F 10.4 °F 63% 29.45 in 1.5 mi West 19.6 mph 24.2 mph N/A Snow Light Snow
1:14 PM 21.2 °F 4.9 °F 10.4 °F 63% 29.46 in 3.0 mi West 23.0 mph 32.2 mph N/A Snow Light Snow
1:34 PM 19.4 °F 0.8 °F 6.8 °F 58% 29.48 in 2.0 mi WNW 28.8 mph 38.0 mph N/A   Haze
1:54 PM 19.4 °F 2.5 °F 6.8 °F 58% 29.48 in 5.0 mi WNW 23.0 mph 32.2 mph N/A   Haze
2:14 PM 19.4 °F 1.1 °F 5.0 °F 54% 29.50 in 2.5 mi WNW 27.6 mph 36.8 mph N/A   Haze
2:34 PM 19.4 °F 3.2 °F 3.2 °F 49% 29.52 in 5.0 mi WNW 20.7 mph 34.5 mph N/A   Haze
2:54 PM 15.8 °F -2.3 °F -2.2 °F 45% 29.54 in 1.0 mi WNW 23.0 mph 40.3 mph N/A   Haze
3:14 PM 15.8 °F -4.4 °F -0.4 °F 49% 29.56 in 4.0 mi WNW 29.9 mph 38.0 mph N/A   Haze
3:34 PM 15.8 °F -5.0 °F -0.4 °F 49% 29.58 in 1.2 mi West 32.2 mph 42.6 mph N/A   Haze
3:54 PM 12.2 °F -9.6 °F -5.8 °F 45% 29.61 in 1.5 mi West 31.1 mph 48.3 mph N/A   Haze
4:14 PM 10.4 °F -9.5 °F -2.2 °F 57% 29.63 in 4.0 mi WNW 23.0 mph 36.8 mph N/A   Haze
4:34 PM 10.4 °F -10.7 °F -0.4 °F 62% 29.66 in 1.0 mi West 26.5 mph 34.5 mph N/A   Haze
4:54 PM 6.8 °F -16.2 °F -5.8 °F 56% 29.68 in 0.8 mi WNW 28.8 mph 42.6 mph N/A Snow Light Snow
5:14 PM 5.0 °F -17.5 °F -5.8 °F 61% 29.71 in 1.8 mi West 25.3 mph 36.8 mph N/A   Haze
5:34 PM 3.2 °F -19.9 °F -9.4 °F 56% 29.74 in 2.5 mi WNW 25.3 mph 40.3 mph N/A Snow Light Snow
5:54 PM 3.2 °F -21.1 °F -9.4 °F 56% 29.76 in 2.5 mi WNW 28.8 mph 44.9 mph N/A   Haze
6:14 PM 3.2 °F -21.5 °F -9.4 °F 56% 29.78 in 3.0 mi WNW 29.9 mph 38.0 mph N/A   Haze
6:34 PM 3.2 °F -20.3 °F -9.4 °F 56% 29.80 in 4.0 mi WNW 26.5 mph 38.0 mph N/A   Haze
6:54 PM 1.4 °F -22.3 °F -9.4 °F 61% 29.82 in 4.0 mi WNW 25.3 mph 32.2 mph N/A   Haze
7:14 PM 1.4 °F -19.4 °F -9.4 °F 61% 29.83 in 4.0 mi WNW 18.4 mph 35.7 mph N/A   Haze
7:34 PM 1.4 °F -21.9 °F -11.2 °F 56% 29.85 in 5.0 mi WNW 24.2 mph 32.2 mph N/A   Haze
7:54 PM 1.4 °F -20.5 °F -11.2 °F 56% 29.87 in 5.0 mi WNW 20.7 mph 35.7 mph N/A   Haze
8:14 PM -0.4 °F -22.8 °F -11.2 °F 60% 29.89 in 4.0 mi WNW 20.7 mph 32.2 mph N/A   Haze
8:34 PM -0.4 °F -23.3 °F -11.2 °F 60% 29.91 in 5.0 mi WNW 21.9 mph 34.5 mph N/A   Haze
8:54 PM -0.4 °F -22.3 °F -13.0 °F 55% 29.93 in 7.0 mi WNW 19.6 mph 28.8 mph N/A   Overcast
9:14 PM -0.4 °F -22.3 °F -13.0 °F 55% 29.95 in 10.0 mi WNW 19.6 mph 29.9 mph N/A   Overcast
9:34 PM -0.4 °F -22.8 °F -11.2 °F 60% 29.98 in 7.0 mi WNW 20.7 mph 31.1 mph N/A   Overcast
9:54 PM -0.4 °F -22.3 °F -14.8 °F 51% 29.99 in 10.0 mi WNW 19.6 mph 28.8 mph N/A   Overcast
10:14 PM -2.2 °F -26.2 °F -14.8 °F 55% 30.01 in 10.0 mi WNW 23.0 mph 29.9 mph N/A   Overcast
10:35 PM -2.2 °F -23.5 °F -14.8 °F 55% 30.02 in 10.0 mi WNW 17.3 mph 29.9 mph N/A   Overcast
10:54 PM -2.2 °F -25.2 °F -14.8 °F 55% 30.03 in 10.0 mi WNW 20.7 mph 27.6 mph N/A   Overcast
11:14 PM -2.2 °F -22.9 °F -16.6 °F 50% 30.04 in 10.0 mi WNW 16.1 mph 27.6 mph N/A   Mostly Cloudy
11:34 PM -4.0 °F -29.1 °F -18.4 °F 50% 30.06 in 10.0 mi WNW 24.2 mph 31.1 mph N/A   Mostly Cloudy
11:54 PM -5.8 °F -24.4 °F -18.4 °F 55% 30.08 in 10.0 mi WNW 11.5 mph 21.9 mph N/A   Overcast